STARLINK-11141, 60066

Orbit data source: Space-Track

STARLINK-11141, 60066 is a payload satellite owned by SpaceX/Seattle (US) in LEO that was launched on Wed, 19 Jun 2024 UTC via an FALCON 9 launch vehicle from the Air Force Western Test Range (AFWTR). Payload-class satellites include a variety of spacecraft equipped with specific instruments for various scientific and technological missions. These include communications satellites like Starlink; space stations such as the ISS; scientific satellites like the Hubble; Earth observation satellites from companies like Planet Labs, Umbra, and HawkEye 360; GPS; miniature CubeSats for education and research; and military/defense satellites.

Loading next visibility...
Identifier
60066, 2024-113H
Orbit
LEO
Last TLE update
6 hours ago
Origin
Manufacturer
SpaceX/Seattle
Mission
Operational Commercial Communications
Bus & Motor
STARLINK V2M, Unknown motor
Mass
730 kg wet, ~700 kg dry
Launch date (UTC)
2024-06-19 (11 months ago)
Launch vehicle
FALCON 9
Launch site
Air Force Western Test Range (AFWTR)
Object type
Payload
Rocket body
Debris
Shape & HBR
Box + 2 Pan, 29 m
Radar Cross Section
33.884 m², Large (>1 m²)

Expand to show TLE details & history

TLE from 6 hours ago
0 STARLINK-11141
1 60066U 24113H   25131.57125374  .00022570  00000-0  19053-3 0  9992
2 60066  53.1588 240.2818 0001179  99.7417 260.3734 15.69724592 52428
Epoch: 2025-05-11T13:42Z
Definitive object data (Epoch: 2025-05-11T13:42:36.323Z)
Latitude
-0.00001°
Longitude
165.03366°
Altitude
360.733 km
Speed
7.694 km/s
True Right ascension
16h 01m 07s
True Declination
0° 00' 00"
Sunlit
Object was in full shadow at TLE epoch
Visualization TLE readout
Latitude
23.17548°
Longitude
-177.6492°
Altitude
360.173 km
Speed
7.697 km/s
Apparent Right ascension
16h 46m 16s
Apparent Declination
-7° 25' 03"
Sunlit
Object is in full shadow
Visualization observer readout
Local Sidereal Time
04:15:43
Azimuth
346.078° N
Elevation
-56.789°
Doppler factor
1
Orbital elements
Apogee altitude
360.74 km
Perigee altitude
359.151 km
Semi-major axis
6,738.083 km
Eccentricity
0.0001179
Inclination
53.1588°
RAAN
240.2818°
Arg. of periapsis
99.7417°
True anomaly
260.36008°
Mean anomaly
260.3734°
Eccentric anomaly
260.36674°
Mean motion
3.92409 °/min
BSTAR
0.00019053
Orbital period
91.74 mins
Loading maneuver chart data...
Loading SW <> Apogee altitude chart data...
Loading historical data...
Loading historical data...
Loading historical data...
Loading historical data...
Loading historical data...
Loading historical data...
Loading historical data...

STARLINK-11141 Visibility forecast

Observer location: undefined°, undefined°

Span
Click to sort rows by Start time (UTC) header in descending order
Start Az.
Max El. time (UTC)
Max El. Az.
Max El.
End time (UTC)
End Az.
5 mins2025-05-12 09:44:47.412Z220.498° SW2025-05-12 09:47:47.412Z109.802° ESE41.99°2025-05-12 09:49:47.412Z56.983° ENE
4 mins2025-05-12 16:10:47.412Z336.115° NNW2025-05-12 16:11:47.412Z6.582° NNE31.037°2025-05-12 16:14:47.412Z106.161° ESE
|